Jackpot

Texas Poker Multi Jackpot System

Kini Telah hadir Jackpot SUPER ROYAL FLUSH

Kini Telah hadir Jackpot 2000 (khusus table VIP keatas).

Ikutilah global jackpot yang tersedia di system kami, dengan system jackpot terbaru dan pertama di indonesia, anda dapat membeli jackpot dengan harga 100 rupiah saja dan menangkan hadiahnya hingga puluhan juta rupiah.

Jackpot bukanlah suatu keharusan untuk dibeli, namun kami memberikan suatu fitur tambahan untuk member tercinta dari www.kodokpoker.com.

Terdapat tiga pilihan harga jackpot yang bisa anda beli yaitu :100,500,1000 dan 2000(khusus table VIP Keatas) rupiah.

Hadiah dari Multi jackpot system www.kodokpoker.com

  1. full house x 10 harga jackpot yang anda beli.
      (contoh:anda membeli 1000 maka:1000 X10 = 10.000)
  2. four of kind x 250 harga jackpot yang anda beli
      (contoh:anda membeli 1000 maka:1000 X250 = 250.000)
  3. Straight flush x 1200
      (contoh:anda membeli 1000 maka:1000 X1200 = 1.200.000)
  4. Royal flush x 10000 harga jackpot yang anda beli
      (contoh:anda membeli 1000 maka:1000 X10000 = 10.000.000)
  5. SUPER ROYAL FLUSH x 30000 harga jackpot yang anda beli
      (contoh:anda membeli 1000 maka:1000 X30000 = 30.000.000)

Kondisi kartu

  1. full house adalah kondisi kartu dimana kartu anda dan kartu tengah dengan total 7 kartu bisa mendapatkan nilai 5 kartu dengan kombinasi 1 tris(three of kind) dan 1 pair, contoh 3 kartu 10 dan 2 kartu 5
  2. Four of kind adalah kondisi kartu dimana kartu anda dan kartu tengah dengan total 7 kartu bisa mendapatkan nilai 5 kartu dengan kombinasi 4 kartu yang sama jumlah dan 1 kartu apapun juga contoh anda mendapatkan 4 buah kartu angka 3 dan 1 kartu apapun.
  3. Staright flush adalah kondisi kartu dimana kartu anda dan kartu tengah dengan total 7 kartu bisa mendapatkan nilai 5 kartu dengan kombinasi seri / staright dengan kembang yang sama contoh : urutan kartu dari angka 5, 6, 7, 8 , 9 10 dengan kembang yg sama misalnya as hati
  4. Royal flush adalah kondisi kartu dimana kartu anda dan kartu tengah dengan total 7 kartu bisa mendapatkan nilai 5 kartu dengan kombinasi seri / staright dengan kembang yang sama tetapi kartu tersebut haruslah dimulai dari 10. contoh 10, Queen, Jack, King dan aces dengan kembang yang sama
  5. Super Royal flush adalah kondisi kartu dimana Kedua kartu anda digabung dengan 3 kartu pertama meja haruslah royal flush. contoh kartu anda 10,Queen kembang sama dan 3 kartu pertama meja adalah Jack, King dan aces dengan kembang yang sama

Demikian adalah penjelasan dari Multi Jackpot www.kodokpoker.com terima kasih dan selamat bermain salam hoki dari kami

Texas Poker Jackpot Winner

TOP SUPER ROYAL FLUSH
No.TanggalNamaPriceWin
130/03 01:39Y4LLITSuper Royal flush3,000,000
230/03 01:33PUNDENKUSuper Royal flush3,000,000
329/03 23:06GUN_12Super Royal flush3,000,000
429/03 22:26RTTNSuper Royal flush15,000,000
529/03 21:17CHIMEZZUMSuper Royal flush3,000,000
TOP ROYAL FLUSH
No.TanggalNamaPriceWin
130/03 07:00BE7169DXRoyal flush5,000,000
230/03 06:52JALITERUS1Royal flush1,000,000
330/03 04:57QIYYAHIISRoyal flush10,000,000
430/03 04:49ANARKIS3Royal flush5,000,000
530/03 04:40XIOMY23Royal flush1,000,000
TOP STRAIGHT FLUSH
No.TanggalNamaPriceWin
130/03 07:41CINDIT29Straight Flush1,200,000
230/03 07:41PK88JPStraight Flush600,000
330/03 07:38BERE8510Straight Flush120,000
430/03 07:31OPTIMUSPRIStraight Flush120,000
530/03 07:30BEDUTLStraight Flush600,000
LATEST JACKPOT
No.TanggalNamaPriceWin
130/03 07:41CINDIT29Straight Flush1,200,000
230/03 07:41P4KD41Full House5,000
330/03 07:41PK88JPStraight Flush600,000
430/03 07:416190L0Four Of A Kind25,000
530/03 07:41COMBI245Full House20,000
630/03 07:41AFE141F4Full House5,000
730/03 07:41EBEN999Full House1,000
830/03 07:41LI4N1990Full House5,000
930/03 07:41ZGAOMINGIIFull House5,000
1030/03 07:40ZEGBIFull House10,000
1130/03 07:40SEKJEN05Full House1,000
1230/03 07:40THOLE008Full House5,000
1330/03 07:40C0799F6EFour Of A Kind250,000
1430/03 07:40WELDER123Full House20,000
1530/03 07:39SRNIJOCOPETFull House5,000
1630/03 07:39BEDDUCALFull House5,000
1730/03 07:39CD57B5BDFull House1,000
1830/03 07:39AINUY07Full House10,000
1930/03 07:39RICKY3Full House10,000
2030/03 07:39KITANG25Full House1,000
2130/03 07:39IRPANZIDNIFull House20,000
2230/03 07:39PARGOGO_IFull House10,000
2330/03 07:39SAMIAJI99Full House5,000
2430/03 07:39LIKALIKULFull House10,000
2530/03 07:38IRONFIST85Full House10,000
2630/03 07:38JPPMANIA01Full House5,000
2730/03 07:38HOSESFull House5,000
2830/03 07:38LOVIANDREFull House5,000
2930/03 07:38ZGAOMINGIIFull House5,000
3030/03 07:38EMIDTHEAFull House10,000
3130/03 07:38ASSUREFull House5,000
3230/03 07:38BONA_16Full House1,000
3330/03 07:38IZ50560Full House5,000
3430/03 07:38BERE8510Straight Flush120,000
3530/03 07:38DMNC999Full House1,000
3630/03 07:38ZYAN1988Full House1,000
3730/03 07:38R3N4LFull House5,000
3830/03 07:38RAYENDA88Full House5,000
3930/03 07:38KENJJI23Full House5,000
4030/03 07:38CASSIE31Full House5,000
4130/03 07:38DERIL1Full House1,000
4230/03 07:38SARJIDFull House5,000
4330/03 07:37C3HH05510BFull House1,000
4430/03 07:37GEZTAPUFull House1,000
4530/03 07:37CHAKEISEIFull House1,000
4630/03 07:37BUL_KINIFull House5,000
4730/03 07:37X_GIVE777Full House10,000
4830/03 07:37SRTM69Full House10,000
4930/03 07:37SIDIKARYAFull House5,000
5030/03 07:37KIDUL066Four Of A Kind25,000

Domino Multi Jackpot System

Ikutilah global jackpot yang tersedia di system kami, dengan system jackpot terbaru dan pertama di indonesia, anda dapat membeli jackpot dengan harga 100 rupiah saja dan menangkan hadiahnya hingga puluhan juta rupiah.

Jackpot bukanlah suatu keharusan untuk dibeli, namun kami memberikan suatu fitur tambahan untuk member tercinta dari www.kodokpoker.com.

Terdapat tiga pilihan harga jackpot yang bisa anda beli yaitu :100,500 dan 1000 rupiah.

Hadiah dari Multi jackpot system www.kodokpoker.com

  1. Murni Kecil x 50 harga jackpot yang anda beli.
      (contoh:anda membeli 1000 maka:1000 X 50 = 50.000)
  2. Murni Besar x 50 harga jackpot yang anda beli
      (contoh:anda membeli 1000 maka:1000 X 50 = 50.000)
  3. BALAK x 100 harga jackpot yang anda beli
      (contoh:anda membeli 1000 maka:1000 X 100 = 100.000)
  4. ENAM DEWA x 6666 harga jackpot yang anda beli
      (contoh:anda membeli 1000 maka:1000 X 6666 = 6.666.000)

Demikian adalah penjelasan dari Multi Jackpot www.kodokpoker.com terima kasih dan selamat bermain salam hoki dari kami

Domino Jackpot Winner

TOP ENAM DEWA
No.TanggalNamaPriceWin
130/03 06:00RYANTDDmurni enam666,600
230/03 00:58LAKUTEH27murni enam666,600
329/03 22:33DELPIERO52murni enam6,666,000
429/03 21:47BALAKS18murni enam6,666,000
529/03 20:41CEKDO30murni enam666,600
TOP BALAK
No.TanggalNamaPriceWin
130/03 07:36FADZRIL99balak100,000
230/03 07:31MATJALU453balak50,000
330/03 07:23TURAK38balak50,000
430/03 07:21ANA1303balak100,000
530/03 07:20TURAK38balak50,000
LATEST JACKPOT
No.TanggalNamaPriceWin
130/03 07:38RINSAOmurni besar5,000
230/03 07:38MUVI16murni kecil25,000
330/03 07:37METS21murni kecil50,000
430/03 07:37MON844murni kecil50,000
530/03 07:36GLSmurni kecil50,000
630/03 07:36FADZRIL99balak100,000
730/03 07:35FOYAROYALmurni besar50,000
830/03 07:32B7AB0119murni kecil5,000
930/03 07:32FOYAROYALmurni besar50,000
1030/03 07:31MATJALU453balak50,000
1130/03 07:30JPJPAUSmurni kecil50,000
1230/03 07:29MAXIMUM008murni besar50,000
1330/03 07:28TEMPOYAK71murni besar50,000
1430/03 07:26HOKY747murni besar50,000
1530/03 07:24BLCKPRINCEmurni besar50,000
1630/03 07:23NARUTO8Qmurni kecil5,000
1730/03 07:23TURAK38balak50,000
1830/03 07:21ANA1303balak100,000
1930/03 07:20TURAK38balak50,000
2030/03 07:18NARUTO8Qmurni besar5,000
2130/03 07:16NAGUKAmurni besar50,000
2230/03 07:14RP1O9ETPTHmurni besar50,000
2330/03 07:14JPJPAUSmurni besar50,000
2430/03 07:12RIC0ARCHAbalak50,000
2530/03 07:11YNHRmurni besar5,000
2630/03 07:11BONA_16murni besar5,000
2730/03 07:10RIB85IU36Emurni kecil25,000
2830/03 07:09JPJPAUSmurni kecil50,000
2930/03 07:08MON844murni besar50,000
3030/03 07:07VIA777balak50,000
3130/03 07:06CREZ01murni besar5,000
3230/03 07:04YNHRbalak10,000
3330/03 07:04BLCKPRINCEbalak100,000
3430/03 07:04DEWIGGmurni besar50,000
3530/03 07:03PADEDE01murni besar50,000
3630/03 07:02APRIEL12balak100,000
3730/03 07:02WIRO505murni besar50,000
3830/03 07:00BONGS01murni kecil25,000
3930/03 07:00BLCKPRINCEmurni besar50,000
4030/03 06:55S3DOT1balak100,000
4130/03 06:53IMANROYmurni besar5,000
4230/03 06:51BIN1980balak50,000
4330/03 06:51DIMAZ21murni kecil50,000
4430/03 06:50AGUN9023murni besar50,000
4530/03 06:49VIA777murni kecil25,000
4630/03 06:49OTEXSKINmurni kecil50,000
4730/03 06:49LEGEGbalak10,000
4830/03 06:48RIB85IU36Emurni kecil25,000
4930/03 06:48LAMPUNG81murni kecil50,000
5030/03 06:47JPJPAUSmurni kecil50,000

Ceme Multi Jackpot System

Jackpot dilihat dari gabungan kartu pemain dengan kartu bandar. Bandar harus membeli jackpot sebanyak jumlah player yang sedang duduk. Sebagai contoh bila terdapat 3 pemain duduk bermain, dan bandar memutuskan untuk membeli jackpot Rp 1.000, maka pada periode tersebut bandar akan membeli jackpot sebanyak 3xRp1.000 = Rp3.000.

Jackpot bukanlah suatu keharusan untuk dibeli, namun kami memberikan suatu fitur tambahan untuk member tercinta dari www.kodokpoker.com.

Terdapat tiga pilihan harga jackpot yang bisa anda beli yaitu :100,500 dan 1000 rupiah.

Hadiah dari Multi jackpot system www.kodokpoker.com

  1. Murni Kecil x 50 harga jackpot yang anda beli.
      (contoh:anda membeli 1000 maka:1000 X 50 = 50.000)
  2. Murni Besar x 50 harga jackpot yang anda beli
      (contoh:anda membeli 1000 maka:1000 X 50 = 50.000)
  3. BALAK x 200 harga jackpot yang anda beli
      (contoh:anda membeli 1000 maka:1000 X 200 = 200.000)
  4. ENAM DEWA x 6666 harga jackpot yang anda beli
      (contoh:anda membeli 1000 maka:1000 X 6666 = 6.666.000)

Demikian adalah penjelasan dari Multi Jackpot www.kodokpoker.com terima kasih dan selamat bermain salam hoki dari kami

Ceme Jackpot Winner

TOP ENAM DEWA
No.TanggalNamaPriceWin
130/03 06:31BRAUM88murni enam666,600
230/03 06:31RMR11murni enam6,666,000
330/03 05:31SAMCONG999murni enam6,666,000
430/03 05:17LIBURPOKERmurni enam3,333,000
530/03 05:12MR_BONGmurni enam6,666,000
TOP BALAK
No.TanggalNamaPriceWin
130/03 07:41MPIINDRYbalak20,000
230/03 07:41AS5758balak200,000
330/03 07:40RET02balak200,000
430/03 07:40DUET1000balak20,000
530/03 07:40HENGKI136balak200,000
LATEST JACKPOT
No.TanggalNamaPriceWin
130/03 07:41MPIINDRYbalak20,000
230/03 07:41AS5758balak200,000
330/03 07:40RET02balak200,000
430/03 07:40DUET1000balak20,000
530/03 07:40HENGKI136balak200,000
630/03 07:40BARZO56balak200,000
730/03 07:39LOJA23murni kecil50,000
830/03 07:38CLINDOmurni kecil5,000
930/03 07:37TERUS8989balak200,000
1030/03 07:37SABENS889balak200,000
1130/03 07:37RUMEDIbalak200,000
1230/03 07:36BAYUCATZmurni kecil25,000
1330/03 07:36JOCKERS1murni besar50,000
1430/03 07:35ZAKI678murni besar50,000
1530/03 07:35MAMATQ9murni besar50,000
1630/03 07:35CILEKbalak20,000
1730/03 07:35PELY123murni besar50,000
1830/03 07:34SARMO_69murni kecil25,000
1930/03 07:34CODOT66666murni besar50,000
2030/03 07:34MTS71murni besar50,000
2130/03 07:34BELITAmurni kecil5,000
2230/03 07:34ANAZ888murni besar25,000
2330/03 07:33JOCKERS1murni kecil50,000
2430/03 07:33IYANKVA1murni kecil50,000
2530/03 07:33EPUL8910murni kecil25,000
2630/03 07:33TORETO893murni kecil50,000
2730/03 07:33GIMOGIMOmurni kecil50,000
2830/03 07:33CEMONS1murni kecil50,000
2930/03 07:32BAGONG199murni kecil25,000
3030/03 07:32DHAMZmurni kecil25,000
3130/03 07:31DEWIR72murni kecil50,000
3230/03 07:31EXSANDAmurni kecil50,000
3330/03 07:31PERINTIS89murni besar50,000
3430/03 07:31JALIEmurni kecil50,000
3530/03 07:30MPIINDRYmurni kecil5,000
3630/03 07:29NOVIANTOR8murni kecil50,000
3730/03 07:29YUHU_CM17balak20,000
3830/03 07:28RAFFAEL23murni kecil5,000
3930/03 07:28M0CH1N69murni kecil50,000
4030/03 07:27TELOY24murni kecil5,000
4130/03 07:27DONIECHENmurni kecil50,000
4230/03 07:26KURO8murni besar50,000
4330/03 07:25HENGKI136murni kecil50,000
4430/03 07:25SENA2003murni besar50,000
4530/03 07:24GONYICIL99murni besar50,000
4630/03 07:24TAISIAU3murni besar50,000
4730/03 07:24D1010FRIbalak200,000
4830/03 07:24BUNGAVIEmurni besar5,000
4930/03 07:24EKOIS24murni kecil50,000
5030/03 07:24LONTESAYURmurni kecil25,000